Starlink 1645

operational
NORAD ID: 47622 Int'l Des: 2021-012 Owner: SPXS Country: US Constellation: starlink
LEOCIRCULARSTARLINK_TYPE

Starlink 1645について

説明を読み込み中...

リアルタイム位置

3D地球を読み込み中...

次回通過

高度履歴

Altitude vs Time

uPlot chart will show altitude changes over time

軌道要素

1 47622U 21012C 25301.66674769 .00079620 00000-0 21565-2 0 9994
2 47622 53.0540 302.1647 0001864 75.6361 207.6787 15.36987695 5809
Epoch: Oct 28, 2025 • Age: 19 hours

現在のステータス

高度 469.3 km
速度 7.63 km/s
衛星直下点 -40.90°S, 36.86°W
打ち上げ日 Feb 16, 2021
運用期間 4.6 years
タイプ internet

技術仕様

分類 Payload
質量 260.00 kg
乾燥質量 248.00 kg
総質量 260.00 kg
長さ 0.20 m
直径 2.80 m
スパン 9.00 m
形状 Box + pan
製造者 SPXS
バスタイプ Starlink
フェーズステータス In Orbit
所有者/国 SPXS/US

大規模コンステレーション

Loading constellations...